TimeEST,TemperatureF,Dew PointF,Humidity,Sea Level PressureIn,VisibilityMPH,Wind Direction,Wind SpeedMPH,Gust SpeedMPH,PrecipitationIn,Events,Conditions,WindDirDegrees,DateUTC
12:53 AM,26.1,23.0,88,30.36,7.0,Calm,Calm,-,N/A,,Clear,0,2013-01-09 05:53:00
1:53 AM,24.1,21.9,91,30.37,6.0,Calm,Calm,-,N/A,,Clear,0,2013-01-09 06:53:00
2:53 AM,24.1,21.0,88,30.38,7.0,Calm,Calm,-,N/A,,Clear,0,2013-01-09 07:53:00
3:53 AM,23.0,19.0,85,30.38,5.0,Calm,Calm,-,N/A,,Clear,0,2013-01-09 08:53:00
4:07 AM,21.2,19.4,93,30.36,1.8,Calm,Calm,-,N/A,,Clear,0,2013-01-09 09:07:00
4:26 AM,23.0,21.2,93,30.37,3.0,Calm,Calm,-,N/A,,Clear,0,2013-01-09 09:26:00
4:53 AM,21.0,18.0,88,30.37,6.0,Calm,Calm,-,N/A,,Clear,0,2013-01-09 09:53:00
5:43 AM,19.4,15.8,86,30.36,1.5,SSE,9.2,43.7,N/A,,Clear,150,2013-01-09 10:43:00
5:53 AM,19.0,16.0,88,30.37,2.0,Calm,Calm,-,N/A,,Clear,0,2013-01-09 10:53:00
6:00 AM,19.4,15.8,86,30.37,7.0,Calm,Calm,-,N/A,,Clear,0,2013-01-09 11:00:00
6:07 AM,21.2,17.6,86,30.37,1.5,Calm,Calm,-,N/A,,Clear,0,2013-01-09 11:07:00
6:09 AM,21.2,17.6,86,30.37,0.8,Calm,Calm,-,N/A,,Mist,0,2013-01-09 11:09:00
6:19 AM,19.4,17.6,93,30.37,1.0,Calm,Calm,-,N/A,,Clear,0,2013-01-09 11:19:00
6:22 AM,19.4,15.8,86,30.38,4.0,Calm,Calm,-,N/A,,Clear,0,2013-01-09 11:22:00
6:53 AM,19.0,15.1,85,30.40,7.0,Calm,Calm,-,N/A,,Clear,0,2013-01-09 11:53:00
7:21 AM,19.4,15.8,86,30.39,0.8,Calm,Calm,-,N/A,,Clear,0,2013-01-09 12:21:00
7:53 AM,21.0,17.1,85,30.40,3.0,Calm,Calm,-,N/A,,Clear,0,2013-01-09 12:53:00
8:53 AM,26.1,23.0,88,30.39,4.0,Calm,Calm,-,N/A,,Clear,0,2013-01-09 13:53:00
9:53 AM,30.9,28.0,89,30.38,4.0,Calm,Calm,-,N/A,,Clear,0,2013-01-09 14:53:00
10:53 AM,36.0,30.0,79,30.34,7.0,Calm,Calm,-,N/A,,Clear,0,2013-01-09 15:53:00
11:53 AM,37.9,28.9,70,30.27,6.0,Calm,Calm,-,N/A,,Clear,0,2013-01-09 16:53:00
1:53 PM,43.0,28.0,56,30.22,10.0,SW,9.2,-,N/A,,Clear,220,2013-01-09 18:53:00
2:53 PM,43.0,28.0,56,30.15,9.0,South,6.9,-,N/A,,Clear,180,2013-01-09 19:53:00
3:53 PM,43.0,30.0,60,30.12,10.0,South,5.8,-,N/A,,Overcast,180,2013-01-09 20:53:00
4:53 PM,42.1,32.0,67,30.07,10.0,West,13.8,-,0.00,,Overcast,260,2013-01-09 21:53:00
5:53 PM,43.0,34.0,71,30.02,9.0,SSW,9.2,-,N/A,,Overcast,210,2013-01-09 22:53:00
6:53 PM,43.0,34.0,71,30.02,10.0,SW,8.1,-,N/A,,Clear,220,2013-01-09 23:53:00
7:53 PM,44.1,34.0,68,30.02,10.0,WSW,8.1,-,N/A,,Clear,240,2013-01-10 00:53:00
8:53 PM,45.0,34.0,65,30.01,10.0,WSW,11.5,18.4,N/A,,Clear,250,2013-01-10 01:53:00
9:53 PM,45.0,32.0,60,30.03,10.0,West,11.5,19.6,N/A,,Clear,260,2013-01-10 02:53:00
10:53 PM,44.1,30.9,60,30.05,10.0,West,10.4,-,N/A,,Clear,260,2013-01-10 03:53:00
11:53 PM,44.1,27.0,51,30.06,10.0,West,12.7,-,N/A,,Partly Cloudy,270,2013-01-10 04:53:00